Simultaneous Nadir Overpasses (SNOs) Predictions

Prediction of SNOs between AQUA and NOAA-19 Satellite Orbit:

Table of predicted SNOs for the next 14.0 days since TLE Epoch: 9/13/2019
Index Date (AQUA) Time (AQUA) Lat,Lon (AQUA) SZA (AQUA ) Date (NOAA-19) Time (NOAA-19) Lat,Lon (NOAA-19) SZA (NOAA-19 ) Distance(km) Time Diff (sec)
1 09/14/2019 01:20:11 80.26, 127.09 78.13 09/14/2019 01:20:28 80.25, 126.94 78.13 3.12 17
2 09/16/2019 06:53:55 -80.25,-136.23 101.06 09/16/2019 06:53:48 -80.25,-136.33 101.05 1.85 7
3 09/18/2019 12:27:41 80.26, -39.78 79.80 09/18/2019 12:27:14 80.24, -39.83 79.80 2.79 27
4 09/18/2019 13:17:07 -80.26, 127.86 100.19 09/18/2019 13:18:11 -80.26, 127.83 100.21 0.56 64
5 09/20/2019 18:01:25 -80.25, 56.92 99.38 09/20/2019 18:00:35 -80.24, 56.90 99.37 1.16 50
6 09/20/2019 18:50:52 80.25,-135.44 80.63 09/20/2019 18:51:36 80.26,-135.54 80.64 2.23 44
7 09/22/2019 23:35:10 80.24, 153.57 81.45 09/22/2019 23:33:59 80.24, 153.65 81.47 1.46 71
8 09/23/2019 00:24:37 -80.26, -39.02 98.50 09/23/2019 00:24:58 -80.25, -38.96 98.52 2.09 21
9 09/25/2019 05:58:22 80.26, 57.58 82.35 09/25/2019 05:58:22 80.23, 57.57 82.33 2.77 0
10 09/27/2019 11:32:06 -80.24, 154.34 96.84 09/27/2019 11:31:45 -80.23, 154.20 96.83 2.93 21




NCC Satellite Simultaneous Nadir Overpasses (SNOs) Prediction Service
